User: anonymous   Login
Location: Unspecified
(0.0000°N, 0.0000°E)
Time: 05:46:16
(UTC+00:00)
Language:

TBA - TO BE ASSIGNED - Orbit

View from above orbital plane
View from above orbital plane
View from above satellite
View from above satellite

Ground track
Ground track

The orbit is defined by the following mean orbital elements,

1 68443U          26145.36520696 +.00000000 +00000-0 +24179-3 0 00009
2 68443  97.4531 104.0992 0005820 134.1617 226.0096 15.17370736    04
Epoch (UTC): 25 May 2026 08:45:53
Eccentricity: 0.0005820
inclination: 97.4531°
perigee height: 510 km
apogee height: 518 km
right ascension of ascending node: 104.0992°
argument of perigee: 134.1617°
revolutions per day: 15.17370736
mean anomaly at epoch: 226.0096°

The dashed part of the orbit path shows where the satellite is in the earth's shadow,  

DLR